Flag for Ukraine Weather past 2 weeks in Kyiv, Ukraine

Now
45 °F

Sunny.


Feels Like: 38 °F
Forecast: 33 / 51 °F
Wind: 13 mph from Northeast

Location: Kyiv

Current Time: Apr 21, 2015 at 3:38:15 PM

Latest Report: Apr 21, 2015 at 3:00 PM


Visibility: 10 mi

Pressure: 29.86 "Hg

Humidity: 39%

Dew point: 21 °F

Location of KyivLocation

Historic Weather in Kyiv — Graph

°F

Kyiv temperature yesterday

Maximum temperature yesterday: 45 °F (at 3:00 PM)
Minimum temperature yesterday: 34 °F (at 2:30 AM)
Average temperature yesterday: 38 °F

Past Weeks' High & Low Weather Summary

 TemperatureHumidityPressure
High73 °F (Apr 12, 4:00 PM)100% (Apr 16, 5:00 AM)30.24 "Hg (Apr 16, 5:00 AM)
Low30 °F (Apr 21, 2:00 AM)15% (Apr 10, 6:30 PM)29.50 "Hg (Apr 20, 10:30 AM)
Average47 °F57%29.93 "Hg
* Reported Apr 6 2:00 PM — Apr 21 2:30 PM, Kyiv, Weather by CustomWeather, © 2015

Note: Actual official high and low records may vary slightly from our data, if they occured in-between our weather recording intervals... More about our weather records

Advertising

Kyiv weather history for previous 24 hours

 ConditionsComfort  
Time TempWeatherWind HumidityBarometerVisibility
2:30 PM
Tue, Apr 21
43 °FSunny.13 mph39%29.86 "Hg10 mi
2:00 PM45 °FPassing clouds.10 mph49%29.86 "HgN/A
1:30 PM43 °FPartly sunny.13 mph46%29.86 "HgN/A
1:00 PM39 °FPartly sunny.10 mph61%29.86 "HgN/A
12:30 PM39 °FOvercast.8 mph61%29.86 "HgN/A
12:00 PM39 °FLight rain. Overcast.10 mph61%29.86 "HgN/A
11:30 AM39 °FPartly sunny.13 mph56%29.83 "HgN/A
11:00 AM41 °FPartly sunny.8 mph53%29.83 "HgN/A
10:30 AM39 °FPartly sunny.13 mph56%29.83 "HgN/A
10:00 AM39 °FPassing clouds.8 mph56%29.83 "HgN/A
9:30 AM39 °FSunny.13 mph56%29.83 "Hg10 mi
9:00 AM39 °FPassing clouds.10 mph56%29.83 "HgN/A
8:30 AM39 °FPassing clouds.10 mph61%29.80 "HgN/A
8:00 AM37 °FSunny.10 mph65%29.80 "Hg10 mi
7:30 AM36 °FSunny.10 mph65%29.80 "Hg10 mi
7:00 AM36 °FSunny.8 mph65%29.80 "Hg10 mi
6:30 AM36 °FClear.10 mph65%29.80 "Hg10 mi
6:00 AM36 °FClear.10 mph65%29.80 "Hg10 mi
5:30 AM36 °FClear.8 mph65%29.77 "Hg10 mi
5:00 AM36 °FClear.8 mph65%29.77 "Hg10 mi
4:30 AM34 °FClear.8 mph70%29.77 "Hg10 mi
4:00 AM34 °FClear.8 mph65%29.80 "Hg10 mi
3:30 AM32 °FClear.6 mph69%29.77 "Hg10 mi
3:00 AM32 °FClear.6 mph69%29.77 "Hg10 mi
2:30 AM30 °FClear.6 mph75%29.77 "Hg10 mi
2:00 AM30 °FClear.6 mph75%29.77 "Hg10 mi
1:30 AM32 °FClear.3 mph69%29.77 "Hg10 mi
1:00 AM32 °FClear.1 mph69%29.77 "Hg10 mi
12:30 AM34 °FClear.3 mph60%29.77 "Hg10 mi
12:00 AM36 °FClear.3 mph56%29.77 "Hg10 mi
11:30 PM
Mon, Apr 20
36 °FClear.6 mph52%29.77 "Hg10 mi
11:00 PM36 °FClear.8 mph52%29.77 "Hg10 mi
10:30 PM37 °FClear.10 mph52%29.77 "Hg10 mi
10:00 PM37 °FClear.8 mph52%29.74 "Hg10 mi
9:30 PM39 °FClear.13 mph48%29.74 "Hg10 mi
9:00 PM39 °FClear.13 mph52%29.71 "Hg10 mi
8:30 PM41 °FPassing clouds.13 mph49%29.71 "HgN/A
8:00 PM41 °FPassing clouds.10 mph49%29.68 "HgN/A
7:30 PM43 °FPassing clouds.13 mph42%29.68 "HgN/A
7:00 PM43 °FPassing clouds.13 mph46%29.65 "HgN/A
6:30 PM43 °FPassing clouds.15 mph42%29.65 "HgN/A
6:00 PM43 °FSunny.15 mph42%29.62 "Hg10 mi
5:30 PM45 °FSunny.17 mph42%29.62 "Hg10 mi
5:00 PM45 °FSunny.20 mph39%29.59 "Hg10 mi
4:30 PM45 °FSunny.17 mph39%29.59 "Hg10 mi
4:00 PM45 °FPartly sunny.22 mph42%29.59 "HgN/A
3:30 PM43 °FPartly sunny.20 mph53%29.56 "HgN/A
3:00 PM45 °FPartly sunny.20 mph53%29.56 "HgN/A
Weather by CustomWeather, © 2015

See weather overviewHow to use our weather pages